Regional Weather Roundup
Issued by NWS

Home | Current Version | Previous Version | Graphics & Text | Print | Product List | Glossary On
Versions: 1 2 3 4 5 6 7 8 9 10 11 12 13 14 15 16 17 18 19 20 21 22 23 24 25 26 27 28 29 30 31 32 33 34 35 36 37 38 39 40 41 42 43 44 45 46 47 48 49 50
000
ASUS45 KSLC 222110
RWRUT

UTAH REGIONAL WEATHER ROUNDUP
NATIONAL WEATHER SERVICE SALT LAKE CITY UT
200 PM MST WED FEB 22 2017

UTZ001>011-023>025-222200-

NORTHERN UTAH

CITY           SKY/WX    TMP DP  RH WIND       PRES   REMARKS
BRIGHAM CITY     N/A     42  29  61 W5        29.88F
HILL AFB       LGT SNOW  38  31  74 SE7       29.86F WCI  33
LOGAN          CLOUDY    40  33  76 NW8       29.87F WCI  34
OGDEN          CLOUDY    39  29  67 SE8       29.86F WCI  33
SALT LAKE CITY CLOUDY    41  34  76 SE3       29.86F
TOOELE VALLEY  CLOUDY    41  34  75 S6        29.87F
WENDOVER       CLOUDY    39  28  65 CALM      29.86F
HEBER CITY     LGT SNOW  34  28  80 CALM      29.83F
WEST JORDAN    CLOUDY    42  41  97 SE10      29.86F

$$

UTZ011>015-024>027-222200-

CENTRAL/NORTHEAST UTAH

CITY           SKY/WX    TMP DP  RH WIND       PRES   REMARKS
PROVO AIRPORT  LGT RAIN  37  33  85 NW3       29.89F
MOAB/CANYONLAN MOSUNNY   61  25  25 SW15G25   29.73F
DELTA          PTSUNNY   45  34  65 CALM      29.82F
PRICE          CLOUDY    48  29  47 NW6       29.77F
RICHFIELD      MOSUNNY   57  25  28 SW17G28   29.76F
ROOSEVELT      MIX PCPN  39  32  75 N3        29.85F
VERNAL         LGT RAIN  41  33  73 N6        29.83F

$$

UTZ013>016-019>022-027-222200-

SOUTHERN UTAH

CITY           SKY/WX    TMP DP  RH WIND       PRES   REMARKS
BRYCE CANYON   SUNNY     41  23  48 SW22G33   29.86F
CEDAR CITY     PTSUNNY   53  26  35 SW24G38   29.80F
MILFORD        SUNNY     56  23  27 SW35G41   29.77F
ST GEORGE      CLOUDY    61  38  42 W14       29.82F
HANKSVILLE     SUNNY     64  23  20 SW20G32   29.75F
KANAB          SUNNY     59  23  25 SW18G30   29.86F
BLANDING       MOSUNNY   58  19  21 W14G28    29.92F

$$

REGIONAL REPORTS     COLORADO/ARIZONA

CITY           SKY/WX    TMP DP  RH WIND       PRES   REMARKS
CRAIG, CO      FLURRIES  36  31  82 NE6       29.85F WCI  31
GRAND JUNCTION CLOUDY    61  28  28 W15G23    29.75F
RIFLE, CO      MOSUNNY   57  28  33 W17G23    29.77F
MONTROSE, CO   CLOUDY    60  23  24 SW18G29   29.81F
CORTEZ, CO     SUNNY     60  24  25 SW15G29   29.90F
COLORADO CITY    N/A     61  30  31 W21G26    29.87F
PAGE, AZ         N/A     65  13  13 SW21G30   29.78F
GRAND CANYON   CLOUDY    51  33  50 SW26G37   29.95F
KINGMAN, AZ    PTSUNNY   66   6   9 SW29G38   29.88F
FLAGSTAFF, AZ  PTSUNNY   47  37  68 SW21G30   30.01F

$$

REGIONAL REPORTS    NEVADA/IDAHO/WYOMING

CITY           SKY/WX    TMP DP  RH WIND       PRES   REMARKS
LAS VEGAS, NV  MOSUNNY   65  24  21 W13G20    29.83F
ELY, NY        CLOUDY    31  21  66 W8        29.92S WCI  23
ELKO, NV       CLOUDY    37  23  56 S22G29    29.89F WCI  26
POCATELLO, ID  MOSUNNY   39  26  59 NW9       29.88F WCI  33
BURLEY, ID     CLOUDY    43  21  41 NE5       29.85F
FORT BRIDGER,  CLOUDY    31  29  90 CALM      29.88F
EVANSTON, WY   LGT SNOW  29  24  82 VRB3      29.84F
ROCK SPRINGS,  LGT SNOW  30  24  78 NW7       29.86F WCI  23
KEMMERER, WY     N/A     32  21  64 CALM      29.85F

$$



USA.gov is the U.S. government's official web portal to all federal, state and local government web resources and services.